Tracking 28790 objects as of 19-Apr-2024
HD Live streaming from Space Station
objects crossing your sky now

SL-8 DEB

Track SL-8 DEB now!
10-day predictions


NORAD ID: 27743
Int'l Code: 1991-009CY
Perigee: 1,490.1 km
Apogee: 1,707.8 km
Inclination: 74.1 °
Period: 118.0 minutes
Semi major axis: 7969 km
RCS: 0.0193 m2 (small)
Launch date: February 12, 1991
Source: Commonwealth of Independent States (former USSR) (CIS)
Launch site: PLESETSK MISSILE AND SPACE COMPLEX (PKMTR)

Note: This is SATELLITE DEBRIS
Your satellite tracking list
Your tracking list is empty




NASA's NSSDC Master Catalog

Two Line Element Set (TLE):
1 27743U 91009CY  24109.47942458  .00000051  00000-0  62289-3 0  9997
2 27743  74.0602 131.9187 0136579 311.9182 117.3539 12.20172561158257
Source of the keplerian elements: AFSPC